Location: Asheville, NC
(35.6000°N, 82.5500°W)
Time: 13:39:07
(UTC-05:00)

Vanguard 2 Rocket - Pass Details

Date: 14 February 2018
Orbit: 555 x 3327 km, 32.9° (Epoch: 21 February)

Event Time Altitude Azimuth Distance (km) Brightness Sun altitude
Rises 08:11:30 0° 284° (WNW) 7,250 10.8 9.4°
Reaches altitude 10° 08:17:43 10° 275° (W) 6,025 10.5 10.6°
Maximum altitude 08:31:14 27° 227° (SW) 3,907 10.0 13.1°
Drops below altitude 10° 08:40:57 10° 174° (S) 4,226 10.9 14.8°
Sets 08:44:25 0° 162° (SSE) 4,827 11.4 15.4°
